Location: Sungai Bunut
(2.6333°N, 113.7333°E)
Time: 15:38:30
(UTC+00:00)

Altair - Pass Details

Date: 06 December 2023
Orbit: 1501 x 1682 km, 47.2° (Epoch: 24 February)

Event Time Altitude Azimuth Distance (km) Brightness Sun altitude
Rises 20:02:38 0° 204° (SSW) 4,931 10.2 -31.7°
Reaches altitude 10° 20:06:07 10° 196° (SSW) 3,943 9.7 -30.9°
Maximum altitude 20:15:23 40° 130° (SE) 2,297 8.8 -28.8°
Drops below altitude 10° 20:24:27 10° 64° (ENE) 3,871 10.1 -26.7°
Sets 20:27:48 0° 57° (ENE) 4,833 10.6 -26.0°
